DW8248 Weather Reports


Display with metric or nautical units.
time (UTC)temp
F
wind
direction
speed
MPH
gust
MPH
rain 1hr
in
rain 24hr
in
rain mn
in
humidity
%
barometer
mb
20181213172223 66 169 5.0 8.0 0.00 0.00 0.00 84 1021.0
20181213171239 66 171 2.0 10.0 0.00 0.00 0.00 85 1021.3
20181213170251 66 174 6.0 10.0 0.00 0.00 0.00 83 1021.6
20181213165259 67 161 5.0 9.0 0.00 0.00 0.00 81 1021.9
20181213164257 67 173 0.0 4.0 0.00 0.00 0.00 79 1021.9
20181213163313 68 189 0.0 0.0 0.00 0.00 0.00 77 1021.9
20181213162255 68 189 0.0 0.0 0.00 0.00 0.00 77 1021.9
20181213161311 67 189 0.0 3.0 0.00 0.00 0.00 77 1022.0
20181213160319 67 191 0.0 3.0 0.00 0.00 0.00 77 1022.3
20181213155306 67 255 0.0 0.0 0.00 0.00 0.00 78 1022.5
20181213154303 67 255 1.0 0.0 0.00 0.00 0.00 78 1022.9
20181213153253 68 255 1.0 5.0 0.00 0.00 0.00 75 1022.8
20181213152235 70 101 2.0 8.0 0.00 0.00 0.00 70 1022.7
20181213151221 70 107 4.0 11.0 0.00 0.00 0.00 69 1022.9
20181213150241 70 148 6.0 11.0 0.00 0.00 0.00 70 1023.0
20181213145240 70 128 3.0 9.0 0.00 0.00 0.00 74 1022.9
20181213144257 69 154 4.0 9.0 0.00 0.00 0.00 75 1022.7
20181213143243 69 144 2.0 6.0 0.00 0.00 0.00 76 1022.6
20181213142220 70 101 2.0 6.0 0.00 0.00 0.00 74 1022.6
20181213141200 70 115 2.0 7.0 0.00 0.00 0.00 72 1022.5
20181213140148 70 115 2.0 7.0 0.00 0.00 0.00 72 1022.4
20181213135144 70 102 4.0 9.0 0.00 0.00 0.00 70 1022.4
20181213134125 69 97 3.0 9.0 0.00 0.00 0.00 71 1022.2
20181213133055 69 130 3.0 7.0 0.00 0.00 0.00 74 1022.1
20181213132107 69 105 2.0 7.0 0.00 0.00 0.00 74 1022.0
20181213131056 69 126 2.0 6.0 0.00 0.00 0.00 74 1022.0
20181213130030 69 123 2.0 5.0 0.00 0.00 0.00 72 1022.0
20181213125052 69 134 1.0 8.0 0.00 0.00 0.00 70 1022.1
20181213124041 69 120 3.0 8.0 0.00 0.00 0.00 70 1021.9
20181213123008 68 117 3.0 6.0 0.00 0.00 0.00 73 1021.8
20181213122020 67 89 1.0 6.0 0.00 0.00 0.00 76 1021.8
20181213121011 67 94 0.0 0.0 0.00 0.00 0.00 79 1021.8
20181213115944 67 94 0.0 0.0 0.00 0.00 0.00 79 1021.7
20181213114931 67 94 0.0 1.0 0.00 0.00 0.00 80 1021.5
20181213113932 66 52 1.0 2.0 0.00 0.00 0.00 82 1021.4
20181213112951 66 52 1.0 3.0 0.00 0.00 0.00 82 1021.5
20181213111954 66 46 2.0 5.0 0.00 0.00 0.00 82 1021.5
20181213110953 65 32 3.0 5.0 0.00 0.00 0.00 83 1021.3
20181213105932 65 44 2.0 3.0 0.00 0.00 0.00 84 1021.5
20181213104940 64 34 1.0 3.0 0.00 0.00 0.00 85 1021.3
20181213103956 64 28 1.0 4.0 0.00 0.00 0.00 86 1021.2
20181213102959 63 24 2.0 4.0 0.00 0.00 0.00 87 1021.1
20181213102011 62 11 2.0 5.0 0.00 0.00 0.00 87 1021.0
20181213101001 61 18 3.0 5.0 0.00 0.00 0.00 85 1020.9
20181213100021 61 350 1.0 4.0 0.00 0.00 0.00 86 1021.2
20181213095027 61 9 0.0 0.0 0.00 0.00 0.00 84 1021.2
20181213094047 61 9 1.0 3.0 0.00 0.00 0.00 85 1021.1
20181213093026 60 350 0.0 0.0 0.00 0.00 0.00 87 1021.2
20181213092026 60 350 0.0 0.0 0.00 0.00 0.00 88 1021.4
20181213091008 60 350 1.0 2.0 0.00 0.00 0.00 88 1021.4
20181213085957 60 327 0.0 2.0 0.00 0.00 0.00 89 1021.2
20181213084923 60 323 0.0 0.0 0.00 0.00 0.00 89 1021.1
20181213083908 60 323 1.0 3.0 0.00 0.00 0.00 89 1021.3
20181213082919 60 323 1.0 3.0 0.00 0.00 0.00 89 1021.4
20181213081855 60 323 0.0 0.0 0.00 0.00 0.00 89 1021.3
20181213080857 60 323 2.0 3.0 0.00 0.00 0.00 89 1021.4
20181213075840 60 321 2.0 4.0 0.00 0.00 0.00 89 1021.3
20181213074820 61 314 2.0 4.0 0.00 0.00 0.00 89 1021.3
20181213073748 61 314 2.0 4.0 0.00 0.00 0.00 88 1021.2
20181213072729 61 308 2.0 4.0 0.00 0.00 0.00 88 1021.2
20181213071739 61 308 3.0 4.0 0.00 0.00 0.00 88 1021.5
20181213070721 61 319 3.0 5.0 0.00 0.00 0.00 87 1021.5
20181213065654 61 313 3.0 5.0 0.00 0.00 0.00 87 1021.7
20181213064637 61 326 2.0 5.0 0.00 0.00 0.00 86 1021.8
20181213063658 62 325 2.0 4.0 0.00 0.00 0.00 85 1021.8
20181213062642 62 336 2.0 5.0 0.00 0.00 0.00 85 1021.9
20181213061637 62 332 4.0 7.0 0.00 0.00 0.00 84 1022.0
20181213060614 62 342 4.0 7.0 0.00 0.00 0.00 83 1021.9
20181213055546 64 341 4.0 7.0 0.00 0.00 0.00 80 1022.1
20181213054517 63 16 5.0 8.0 0.00 0.00 0.00 80 1022.1
20181213053517 63 331 4.0 7.0 0.00 0.00 0.00 80 1022.2
20181213052447 63 335 4.0 7.0 0.00 0.00 0.00 80 1022.2
20181213051433 63 330 3.0 5.0 0.00 0.00 0.00 80 1022.1
20181213050414 63 326 4.0 7.0 0.00 0.00 0.00 79 1022.3
20181213045425 63 328 4.0 7.0 0.00 0.00 0.00 79 1022.4
20181213044354 62 335 3.0 7.0 0.00 0.00 0.00 78 1022.4
20181213043340 62 330 4.0 9.0 0.00 0.00 0.00 79 1022.8
20181213042343 62 331 4.0 9.0 0.00 0.00 0.00 78 1023.2
20181213041338 62 341 4.0 8.0 0.00 0.00 0.00 79 1023.2
20181213040312 62 337 5.0 8.0 0.00 0.00 0.00 77 1023.3
20181213035325 63 323 5.0 8.0 0.00 0.00 0.00 76 1023.4
20181213034334 64 347 3.0 8.0 0.00 0.00 0.00 75 1023.3
20181213033348 64 5 4.0 9.0 0.00 0.00 0.00 74 1023.3
20181213032358 64 5 4.0 9.0 0.00 0.00 0.00 73 1023.2
20181213031352 64 15 4.0 8.0 0.00 0.00 0.00 72 1023.2
20181213030414 64 24 4.0 8.0 0.00 0.00 0.00 71 1023.1
20181213025430 64 5 5.0 10.0 0.00 0.00 0.00 71 1023.4
20181213024447 64 22 5.0 10.0 0.00 0.00 0.00 70 1023.3
20181213023441 64 0 6.0 10.0 0.00 0.00 0.00 69 1023.8
20181213022424 64 11 4.0 9.0 0.00 0.00 0.00 68 1023.2
20181213021401 64 46 4.0 9.0 0.00 0.00 0.00 68 1022.9
20181213020350 63 43 4.0 10.0 0.00 0.00 0.00 65 1022.9
20181213015332 64 5 5.0 10.0 0.00 0.00 0.00 65 1023.4
20181213014352 64 0 5.0 9.0 0.00 0.00 0.00 66 1023.3
20181213013321 63 34 5.0 11.0 0.00 0.00 0.00 66 1023.2
20181213012331 63 51 5.0 13.0 0.00 0.00 0.00 66 1023.1
20181213011343 63 27 7.0 13.0 0.00 0.00 0.00 66 1023.4
20181213010334 63 5 7.0 13.0 0.00 0.00 0.00 67 1023.4
20181213005335 63 29 5.0 12.0 0.00 0.00 0.00 67 1023.5
20181213004346 63 13 5.0 11.0 0.00 0.00 0.00 67 1023.2
20181213003349 63 14 6.0 12.0 0.00 0.00 0.00 66 1023.3
20181213002352 63 5 7.0 12.0 0.00 0.00 0.00 65 1023.9
20181213001317 63 0 5.0 11.0 0.00 0.00 0.00 68 1023.9
20181213000322 63 0 5.0 9.0 0.00 0.00 0.00 66 1023.5
20181212235323 63 346 5.0 10.0 0.00 0.00 0.00 68 1023.3
20181212234320 63 27 5.0 10.0 0.00 0.00 0.00 68 1023.1
20181212233304 63 23 5.0 12.0 0.00 0.00 0.00 69 1023.3
20181212232235 63 34 6.0 12.0 0.00 0.00 0.00 70 1023.5
20181212231233 63 355 5.0 12.0 0.00 0.00 0.00 70 1023.4
20181212230249 63 42 5.0 11.0 0.00 0.00 0.00 70 1023.4
20181212225311 62 11 4.0 8.0 0.00 0.00 0.00 71 1023.2
20181212224327 62 5 4.0 9.0 0.00 0.00 0.00 72 1023.1
20181212223337 63 26 4.0 9.0 0.00 0.00 0.00 71 1023.3
20181212222347 63 20 4.0 9.0 0.00 0.00 0.00 72 1023.3
20181212221312 63 38 4.0 8.0 0.00 0.00 0.00 72 1023.4
20181212220255 63 5 4.0 9.0 0.00 0.00 0.00 70 1023.5
20181212215302 63 0 5.0 10.0 0.00 0.00 0.00 70 1023.3
20181212214302 63 34 5.0 10.0 0.00 0.00 0.00 69 1023.1
20181212213314 64 5 4.0 10.0 0.00 0.00 0.00 69 1023.0
20181212212256 64 24 5.0 10.0 0.00 0.00 0.00 68 1022.9
20181212211315 64 350 5.0 10.0 0.00 0.00 0.00 67 1022.8
20181212210336 65 355 5.0 10.0 0.00 0.00 0.00 65 1022.6
20181212205348 65 17 4.0 9.0 0.00 0.00 0.00 64 1022.7
20181212204354 65 31 5.0 10.0 0.00 0.00 0.00 58 1022.5
20181212203400 65 13 5.0 11.0 0.00 0.00 0.00 58 1022.5
20181212202340 65 32 6.0 11.0 0.00 0.00 0.00 54 1022.5
20181212201351 65 344 6.0 12.0 0.00 0.00 0.00 52 1022.6
20181212200333 65 0 6.0 12.0 0.00 0.00 0.00 52 1022.6
20181212195335 65 26 6.0 11.0 0.00 0.00 0.00 52 1022.8
20181212194357 65 5 6.0 11.0 0.00 0.00 0.00 53 1022.6
20181212193400 65 32 7.0 12.0 0.00 0.00 0.00 56 1022.8
20181212192349 65 24 7.0 12.0 0.00 0.00 0.00 56 1023.0
20181212191329 64 9 7.0 11.0 0.00 0.00 0.00 58 1023.0
20181212190307 64 355 7.0 11.0 0.00 0.00 0.00 60 1022.9
20181212185240 64 335 7.0 12.0 0.00 0.00 0.00 63 1023.3
20181212184240 64 0 8.0 12.0 0.00 0.00 0.00 63 1023.5
20181212183213 64 5 7.0 12.0 0.00 0.00 0.00 62 1023.7
20181212182232 64 12 7.0 12.0 0.00 0.00 0.00 66 1023.9
20181212181229 63 34 8.0 13.0 0.00 0.00 0.00 68 1024.1
20181212180207 63 348 9.0 14.0 0.00 0.00 0.00 67 1024.4
20181212175208 63 5 9.0 14.0 0.00 0.00 0.00 69 1024.4
20181212174134 63 351 8.0 13.0 0.00 0.00 0.00 70 1024.6
20181212173134 63 348 8.0 12.0 0.00 0.00 0.00 72 1024.7